Regional Weather Roundup
Issued by NWS Cleveland, OH

Home | Current Version | Previous Version | Graphics & Text | Print | Product List | Glossary On
Versions: 1 2 3 4 5 6 7 8 9 10 11 12 13 14 15 16 17 18 19 20 21 22 23 24 25 26 27 28 29 30 31 32 33 34 35 36 37 38 39 40 41 42 43 44 45 46 47 48 49 50
000
ASUS41 KCLE 230402
RWRCLE
OHIO REGIONAL WEATHER ROUNDUP
NATIONAL WEATHER SERVICE CLEVELAND, OH
1100 PM EST SUN JAN 22 2017

NOTE: "FAIR" INDICATES FEW OR NO CLOUDS BELOW 12,000 FEET WITH NO
SIGNIFICANT WEATHER AND/OR OBSTRUCTIONS TO VISIBILITY.

OHZ001>008-015>018-024>027-034-035-043-044-230500-
   NORTHWEST OHIO

CITY           SKY/WX    TMP DP  RH WIND       PRES   REMARKS
DEFIANCE       FOG       45  45 100 NE12      29.61R VSB 3/4
FINDLAY        FOG       43  40  89 N13       29.57R VSB 3/4
TOLEDO EXPRESS CLOUDY    41  41 100 NE15      29.61S FOG
TOLEDO EXEC    CLOUDY    37  37 100 NE9       29.63S FOG
LIMA           FOG       46  46 100 N9        29.54F VSB 1/2
$$

OHZ009>014-019>023-028>033-038-089-230500-
   NORTHEAST OHIO

CITY           SKY/WX    TMP DP  RH WIND       PRES   REMARKS
CLE-HOPKINS    CLOUDY    42  38  85 N7        29.59F
CLE-LAKEFRONT  CLOUDY    38  37  97 NE13      29.57F FOG
CUY CO. ARPT   MOCLDY    45  43  93 E7        29.58F
LORAIN-ELYRIA  CLOUDY    40  37  89 NE9       29.58S
ASHTABULA      CLOUDY    41  40  96 NE6       29.60F
AKRON-CANTON   CLOUDY    53  47  79 NE9       29.54F
WOOSTER        PTCLDY    51  47  86 NE9       29.54F
MANSFIELD      CLOUDY    51  48  89 N8        29.53F
YOUNGSTOWN     CLOUDY    52  46  80 E7        29.57F
$$

OHZ042-051>053-060>062-070>072-077>081-230500-
  SOUTHWEST OHIO

CITY           SKY/WX    TMP DP  RH WIND       PRES   REMARKS
CINC-COVINGTON CLOUDY    56  49  77 NE15      29.42F
CINC-LUNKEN    CLOUDY    57  49  74 NE9       29.43F
HAMILTON       CLOUDY    56  49  77 N10       29.45F
DAYTON         MOCLDY    51  48  89 N14       29.49S
WRIGHT-PAT AFB MOCLDY    54  50  85 N12       29.47S
DAYTON GENERAL CLOUDY    54  48  80 NE15      29.45F
WILMINGTON     CLOUDY    52  49  89 NE14      29.43F
$$

OHZ036-037-039>041-045>050-054>059-063>069-073>076-082>088-230500-
  CENTRAL AND SOUTHEAST OHIO

CITY           SKY/WX    TMP DP  RH WIND       PRES   REMARKS
COLUMBUS       CLOUDY    58  48  69 NE10      29.47S
OSU AIRPORT    CLOUDY    55  49  80 NE10      29.47F
BOLTON FIELD   NOT AVBL
RICKENBACK AFB NOT AVBL
NEWARK         CLOUDY    57  47  69 NE7       29.47F
MARION         PTCLDY    50  47  89 N12       29.52F
LANCASTER      CLOUDY    55  48  77 NE9       29.46F
ZANESVILLE     LGT RAIN  56  48  74 NE8       29.47F
NEW PHILLY     NOT AVBL
$$




USA.gov is the U.S. government's official web portal to all federal, state and local government web resources and services.